This is the latest recevied weather packets stored in our database for station/object EA1IRT-1. If no packets are shown the sender has not sent any weather packets the latest 10 day(s).
| Time | Temp. | Humidity | Pressure | Rain* | Wind** | Luminosity | Snow |
|---|---|---|---|---|---|---|---|
| 1778113886 | 12.22° C | 98% | 1013 hPa | - | - | - | - |
| 1778112986 | 12.22° C | 99% | 1013.2 hPa | - | - | - | - |
| 1778112086 | 12.22° C | 97% | 1013.2 hPa | - | - | - | - |
| 1778111186 | 12.22° C | 96% | 1013.5 hPa | - | - | - | - |
| 1778110286 | 12.22° C | 95% | 1013.5 hPa | - | - | - | - |
| 1778109386 | 12.22° C | 94% | 1013.8 hPa | - | - | - | - |
| 1778108486 | 12.78° C | 91% | 1013.7 hPa | - | - | - | - |
| 1778107586 | 12.22° C | 91% | 1013.8 hPa | - | - | - | - |
| 1778106686 | 12.22° C | 92% | 1013.8 hPa | - | - | - | - |
| 1778105785 | 12.22° C | 92% | 1013.9 hPa | - | - | - | - |
| 1778104894 | 181.67° C | 100% | - | - | - | - | - |
| 1778103945 | 12.78° C | 88% | 1014.1 hPa | - | - | - | - |
| 1778103047 | 181.67° C | 100% | - | - | - | - | - |
| 1778102056 | 13.33° C | 100% | - | - | - | - | - |
| 1778101065 | 13.33° C | 85% | 1014.3 hPa | - | - | - | - |
| 1778100165 | 13.89° C | 84% | 1014.2 hPa | - | - | - | - |
| 1778099265 | 13.89° C | 82% | 1014.1 hPa | - | - | - | - |
| 1778098365 | 14.44° C | 80% | 1014.1 hPa | - | - | - | - |
| 1778097465 | 14.44° C | 77% | 1014.2 hPa | - | - | - | - |
| 1778096571 | 15° C | 76% | 1014 hPa | - | - | - | - |
| 1778095665 | 15.56° C | 76% | 1014 hPa | - | - | - | - |
| 1778094764 | 15.56° C | 75% | 1013.9 hPa | - | - | - | - |
| 1778093864 | 16.11° C | 73% | 1013.9 hPa | - | - | - | - |
| 1778092964 | 16.67° C | 71% | 1013.9 hPa | - | - | - | - |
| 1778092064 | 16.67° C | 72% | 1013.9 hPa | - | - | - | - |
* Rain since midnight (hover to see other rain measurements)
** Current wind speed in m/s (hover to see current wind gust speed)